Location: �couen
(49.0206°N, 2.3831°E)
Time: 04:00:27
(UTC+00:00)

Cosmos 2344 - Pass Details

Date: 16 October 2021
Orbit: 1233 x 3009 km, 63.3° (Epoch: 29 November)

Event Time Altitude Azimuth Distance (km) Brightness Sun altitude
Rises 20:00:53 0° 317° (NW) 4,482 7.4 -30.2°
Reaches altitude 10° 20:03:28 10° 317° (NW) 3,633 6.7 -30.6°
Maximum altitude 20:12:30 82° 232° (SW) 1,847 4.2 -32.0°
Enters shadow 20:15:58 52° 154° (SSE) 2,347 4.5 -32.5°
